Notices

What's New in latest Release from April 7th, 2021:

- Updated Glossary, including Speed of Maximum Gust, and Total Hourly Precipitation

- Updated national and regional climate services offices contacts and prices information

- Addition of station inventory lists for 1981-2010, 1971-2000, and 1961-1990 Normals.

If you haven't already, please take our survey and provide feedback about our website: https://eccc.sondage-survey.ca/f/LanguageSelection.aspx?s=442ca660-fcf1-47c0-95a9-59707d6fd709

Hourly Data Report for November 24, 2019

PINAWA
MANITOBA
Current Station Operator: ECCC - MSC

50°10'38.020" N
96°03'53.000" W
268.00 m
503B1ER
71448
WEA

Download Data

Hourly Data (November 2019)
Hourly Data Report for November 24, 2019
TIME
LST
Temp Definition
°C
Dew Point Definition
°C
Rel Hum Definition
%
Precip. Amount Definition
mm

Wind Dir Definition
10's deg

Wind Spd Definition
km/h
Visibility Definition
km
Stn Press Definition
kPa
Hmdx Definition


Wind Chill Definition


Weather Definition


00:00 2.0 LegendMM LegendMM 0.0 27 13   96.40     LegendNANA
01:00 2.3 LegendMM LegendMM 0.0 27 13   96.43     LegendNANA
02:00 2.7 LegendMM LegendMM 0.0 28 16   96.47     LegendNANA
03:00 2.1 LegendMM LegendMM 0.0 27 14   96.50     LegendNANA
04:00 2.2 LegendMM LegendMM 0.0 28 15   96.51     LegendNANA
05:00 0.3 LegendMM LegendMM 0.0 25 7   96.52     LegendNANA
06:00 -0.1 LegendMM LegendMM 0.0 26 9   96.55   -3 LegendNANA
07:00 -0.9 LegendMM LegendMM 0.0 26 5   96.54   -3 LegendNANA
08:00 -1.2 LegendMM LegendMM 0.0 22 4   96.58   -3 LegendNANA
09:00 -0.6 LegendMM LegendMM 0.0 24 3   96.59   -2 LegendNANA
10:00 1.3 LegendMM LegendMM 0.0 28 4   96.61     LegendNANA
11:00 2.7 LegendMM LegendMM 0.0 29 5   96.61     LegendNANA
12:00 3.9 LegendMM LegendMM 0.0 31 3   96.56     LegendNANA
13:00 4.7 LegendMM LegendMM 0.0 5 1   96.49     LegendNANA
14:00 5.8 LegendMM LegendMM 0.0 17 5   96.42     LegendNANA
15:00 4.4 LegendMM LegendMM 0.0 18 5   96.41     LegendNANA
16:00 2.6 LegendMM LegendMM 0.0 15 3   96.37     LegendNANA
17:00 1.4 LegendMM LegendMM 0.0 12 3   96.33     LegendNANA
18:00 1.7 LegendMM LegendMM 0.0 12 4   96.31     LegendNANA
19:00 1.1 LegendMM LegendMM 0.0 12 2   96.28     LegendNANA
20:00 0.5 LegendMM LegendMM 0.0 11 5   96.27     LegendNANA
21:00 1.0 LegendMM LegendMM 0.0 11 6   96.22     LegendNANA
22:00 0.8 LegendMM LegendMM 0.0 11 5   96.21     LegendNANA
23:00 0.7 LegendMM LegendMM 0.0 10 7   96.17     LegendNANA

Notes on Data Quality.

Legend

  • E = Estimated
  • M = Missing
  • NA = Not Available*
  • [empty] = Indicates an unobserved value
Date modified: